Погода в Княгининоке

Украина / Волынская область     50°47′48″N   25°16′03″E
В апреле 2022 года жителям России запретили посещать сайт meteo.paraplan.net по решению Генеральной прокуратуры. Аудитория сайта уменьшилась в 10 раз. Владельцы сайта не видят смысла в поддержке погодного сервера в таких условиях. Сайт будет закрыт в октябре.
темп.,
°C
ветер,
м/с
пор.,
м/с
влажн.,
%
обл.,
%
осадки,
мм/ч
давл.,
гПа
погр.,
м
3 октября, пн
пн300:00+10зсз71383100 0.1 1007747
03:00+10зсз61387100 0.3 1007743
06:00+9з7148999 0.1 1006629
09:00+8зсз81486100 0.3 1006961
12:00+9з71387100 0.4 10051195
15:00+10з91588100 0.8 10041209
18:00+10сз91489100 1.4 10041039
21:00+8зсз71584100 1.6 1008871
4 октября, вт
вт400:00+8зсз81583100 0.0 1008817
03:00+8зсз91586100 0.0 1009890
06:00+7зсз81587100 0.0 1010722
09:00+8з81587100 0.0 1012837
12:00+10зсз91379100 0.0 10131034
15:00+10зсз71281100 0.1 10151018
18:00+10з51279100 0.1 1016783
21:00+10з7147749 0.1 1018558
5 октября, ср
ср500:00+9з613885 0.1 1020426
03:00+8з6139175 0.1 1022385
06:00+6з4119548 0.0 1023273
09:00+8зюз41088100 0.0 1024302
12:00+12з5871100 0.0 1024604
15:00+15зюз676199 0.0 1023904
18:00+13юз3672100 0.0 1023135
21:00+10юз41080100 0.0 1023199
6 октября, чт
чт600:00+11юз5137894 0.0 1024345
03:00+9юз51383100 0.0 1024286
06:00+9юз5138650 0.0 1023263
09:00+10зюз4138276 0.0 1024336
12:00+15з6106696 0.0 1024569
15:00+17з696695 0.0 1024805
18:00+16зсз59755 0.0 1025289
21:00+14сз51186100 0.0 1027346
7 октября, пт
пт700:00+12сз49875 0.0 1029246
03:00+10зсз35945 0.0 1030101
06:00+8зсз33925 0.0 103036
09:00+9зсз23825 0.0 103188
12:00+14з225856 0.0 1030572
15:00+16юз225043 0.0 1028978
18:00+14ю226641 0.0 102718
21:00+10ююв337510 0.0 102734